This demonstration page uses our WeatherBlox Daily Observations layout. Learn more.

Left ArrowRight Arrow

39.92423, -83.80882

Hourly Observations for March 15, 2020

Temp ( °F °C ) Dew Point ( °F °C ) Humidity (%) Winds ( mph kmh ) Pressure ( in mb ) Visibility ( mi km ) Precip ( " mm )
12:44 am 00:44 Cloudy with Light Wintry Mix 32 0 32 0 100 100 NE 14 22 30.46 1032 10 16.0934 0.001 0.001
12:56 am 00:56 Cloudy with Light Snow 32 0 31 -0.6 96 96 ENE 15 24 30.44 1031 10 16.0934 0.001 0.001
1:56 am 01:56 Cloudy 31 -0.6 31 -0.6 100 100 NE 14 22 30.45 1031 10 16.0934 0.001 0.001
2:56 am 02:56 Cloudy 31 -0.6 30 -1.1 96 96 NNE 13 20 30.47 1032 10 16.0934 0 0
3:56 am 03:56 Cloudy 31 -0.6 30 -1.1 96 96 NNE 13 20 30.48 1032 10 16.0934 0 0
4:56 am 04:56 Cloudy 31 -0.6 30 -1.1 96 96 NNE 16 26 30.48 1032 10 16.0934 0 0
5:56 am 05:56 Cloudy 31 -0.6 30 -1.1 96 96 NNE 15 24 30.49 1033 10 16.0934 0 0
6:56 am 06:56 Cloudy 31 -0.6 30 -1.1 96 96 NE 14 22 30.51 1033 10 16.0934 0 0
7:56 am 07:56 Cloudy 31 -0.6 29 -1.7 92 92 NE 13 20 30.52 1034 10 16.0934 0 0
8:56 am 08:56 Cloudy 31 -0.6 30 -1.1 96 96 NE 17 28 30.54 1034 10 16.0934 0 0
9:56 am 09:56 Cloudy 32 0 30 -1.1 92 92 NE 12 19 30.56 1035 10 16.0934 0 0
10:46 am 10:46 Cloudy 34 1 30 -1 87 87 ENE 12 19 30.58 1036 10 16.0934 0 0
10:56 am 10:56 Cloudy 33 0.6 30 -1.1 89 89 ENE 10 17 30.58 1036 10 16.0934 0 0
11:36 am 11:36 Mostly Cloudy 36 2 32 0 87 87 NNE 9 15 30.59 1036 10 16.0934 0.03 0.762
11:56 am 11:56 Cloudy 35 1.7 32 0 89 89 NNE 13 20 30.58 1035 10 16.0934 0.03 0.762
12:56 pm 12:56 Cloudy 36 2.2 33 0.6 89 89 NNE 14 22 30.57 1035 10 16.0934 0 0
1:38 pm 13:38 Cloudy 37 3 34 1 87 87 NNE 13 20 30.57 1035 10 16.0934 0 0
1:56 pm 13:56 Cloudy 39 3.9 34 1.1 82 82 NE 12 19 30.56 1035 10 16.0934 0 0
2:56 pm 14:56 Cloudy 40 4.4 33 0.6 77 77 NE 10 17 30.54 1034 10 16.0934 0.04 1.016
3:56 pm 15:56 Cloudy 42 5.6 34 1.1 73 73 NNE 10 17 30.52 1033 10 16.0934 0.38 9.652
4:15 pm 16:15 Cloudy 43 6 34 1 71 71 NE 8 13 30.51 1033 10 16.0934 0 0
4:39 pm 16:39 Cloudy 45 7 36 2 71 71 NE 7 11 30.5 1033 10 16.0934 0.01 0.254
4:54 pm 16:54 Cloudy 43 6 34 1 71 71 NNE 10 17 30.51 1033 10 16.0934 0.01 0.254
4:56 pm 16:56 Cloudy 42 5.6 34 1.1 73 73 NNE 9 15 30.51 1033 10 16.0934 0.01 0.254
5:08 pm 17:08 Cloudy 43 6 34 1 71 71 NNE 10 17 30.5 1033 10 16.0934 0 0
5:56 pm 17:56 Cloudy 42 5.6 33 0.6 71 71 NNE 13 20 30.5 1033 10 16.0934 0 0
6:56 pm 18:56 Cloudy 40 4.4 34 1.1 79 79 NE 13 20 30.5 1033 10 16.0934 0 0
7:56 pm 19:56 Cloudy 39 3.9 33 0.6 79 79 NNE 8 13 30.51 1033 10 16.0934 0.01 0.254
8:56 pm 20:56 Cloudy 39 3.9 34 1.1 82 82 NNE 8 13 30.51 1033 10 16.0934 0 0
9:56 pm 21:56 Cloudy 39 3.9 33 0.6 79 79 NNE 10 17 30.5 1033 10 16.0934 0 0
10:56 pm 22:56 Cloudy 37 2.8 31 -0.6 79 79 NE 10 17 30.5 1033 10 16.0934 0 0
11:56 pm 23:56 Cloudy 35 1.7 28 -2.2 76 76 NE 7 11 30.5 1033 10 16.0934 0 0

Powered by AerisWeather